Regional Weather Roundup
Issued by NWS Green Bay, WI

Home | Current Version | Previous Version | Text Only | Print | Product List | Glossary On
Versions: 1 2 3 4 5 6 7 8 9 10 11 12 13 14 15 16 17 18 19 20 21 22 23 24 25 26 27 28 29 30 31 32 33 34 35 36 37 38 39 40 41 42 43 44 45 46 47 48 49 50
000
ASUS43 KGRB 241500
RWRGRB

NORTH-CENTRAL AND NORTHEAST WISCONSIN REGIONAL WEATHER ROUNDUP
NATIONAL WEATHER SERVICE GREEN BAY WI
1000 AM CDT SAT JUN 24 2017

WIZ005-009-010>012-018-019-241600-
NORTH CENTRAL WISCONSIN

CITY           SKY/WX    TMP DP  RH WIND       PRES   REMARKS
IRONWOOD       CLOUDY    54  50  86 W12       29.89R
MANITOWISH WTR NOT AVBL
ARBOR VITAE    NOT AVBL
EAGLE RIVER    NOT AVBL
LAND O LAKES   DRIZZLE   54  52  94 CALM      29.89S
RHINELANDER    CLOUDY    56  51  84 W12       29.90R
PHILLIPS       NOT AVBL
ANTIGO         NOT AVBL
TOMAHAWK       NOT AVBL
MERRILL        CLOUDY    56  50  81 NW10      29.92S
$$

WIZ013-073-241600-
NORTHEAST WISCONSIN

CITY           SKY/WX    TMP DP  RH WIND       PRES   REMARKS
IRON MOUNTAIN  CLOUDY    60  51  72 NW8       29.84S
MARINETTE      MOSUNNY   62  55  77 NW6       29.85S
$$

WIZ017-030-035>037-045-241600-
CENTRAL WISCONSIN

CITY           SKY/WX    TMP DP  RH WIND       PRES   REMARKS
MEDFORD        NOT AVBL
WAUSAU         CLOUDY    58  49  72 NW14      29.91R
MOSINEE        CLOUDY    59  52  77 W12G18    29.93S
MARSHFIELD     MOSUNNY   61  48  62 NW15G25   29.94R
WISC RAPIDS    PTSUNNY   62  46  55 NW12G21   29.95S
STEVENS POINT  NOT AVBL
WAUPACA        PTSUNNY   65  50  57 W8        29.92R
SHAWANO        NOT AVBL
CLINTONVILLE   NOT AVBL
WAUTOMA        PTSUNNY   64  47  53 W13G22    29.93F
$$

WIZ038-039-048-051-241600-
FOX VALLEY

CITY           SKY/WX    TMP DP  RH WIND       PRES   REMARKS
NWS GREEN BAY  MOSUNNY   66  58  75 W10       29.88S
APPLETON       PTSUNNY   63  48  59 W17G23    29.88S
OSHKOSH        SUNNY     65  50  58 W14G23    29.90S
FOND DU LAC    MOSUNNY   66  51  58 W14G20    29.91F
$$

WIZ022-050-052-241600-
EAST CENTRAL WISCONSIN

CITY           SKY/WX    TMP DP  RH WIND       PRES   REMARKS
EPHRAIM        NOT AVBL
WASHINGTON ISL NOT AVBL
STURGEON BAY     N/A     63  55  75 NW9         N/A
MANITOWOC      NOT AVBL
SHEBOYGAN      MOSUNNY   66  57  72 NW15G22   29.88S
$$

LMZ563-521-522-541>543-241600-
LAKESHORE

STATION/POSITION TIME  TEMP    WIND        PRES    VSBY  WAVE
                       AIR SEA DIR/SP/G                  HT/PER
                 (UTC) (F)     (DEG/KT/KT) (MB)    (MI)  (FT/S)
SHEBOYGAN LKSHOR 1400   63     310/ 14/ 17 1011.4R
KEWAUNEE LKSHORE 1430   62     280/  8/ 12 1010.9R
NORTHPORT PIER   1440   62     320/  8/ 12 1010.5R
N MID LAKE BUOY  1350   58 56  310/  8/ 10 1010.4R         1/ 4
S GREEN BAY BUOY 1430   61     280/ 10/ 12 1010.7R
CHAMBERS ISLAND  1440   63     250/  5/  6 1010.2S
MENOMINEE LKSHOR 1424          260/  5/  7 1009.9
$$




USA.gov is the U.S. government's official web portal to all federal, state and local government web resources and services.